Saint Ignace, MI

12:06 AM EST on February 20, 2017 (GMT -0500)
Mackinac Island

Weather History for KMCD - March, 2014

Change the Weather History Date:

Monday, March 31, 2014

  Actual Average Record
Temperature  
Mean Temperature 32 °F -  
Max Temperature 36 °F 38 °F 66 °F (1999)
Min Temperature 29 °F 24 °F 11 °F (1975)
Degree Days  
Heating Degree Days 32    
Moisture  
Dew Point 29 °F    
Average Humidity 85    
Maximum Humidity 96    
Minimum Humidity 74    
Precipitation  
Precipitation 0.00 in - - ()
Sea Level Pressure  
Sea Level Pressure 30.04 in    
Wind  
Wind Speed 11 mph (East)    
Max Wind Speed 22 mph    
Max Gust Speed 32 mph    
Visibility 10 miles    
Events      
Averages and records for this station are not official NWS values.
T = Trace of Precipitation, MM = Missing Value Source: NWS Daily Summary

Daily Weather History Graph

Daily Weather History Graph

Search for Another Location

Airport or City:

Trip Planner

Search our weather history database for the weather conditions in past years. The results will help you decide how hot, cold, wet, or windy it might be!

Date:

Astronomy

Mar. 31, 2014 Rise Set
Actual Time 7:20 AM EDT 8:05 PM EDT
Civil Twilight 6:50 AM EDT 8:35 PM EDT
Nautical Twilight 6:14 AM EDT 9:11 PM EDT
Astronomical Twilight 5:37 AM EDT 9:49 PM EDT
Moon 7:40 AM EDT (3/31) 9:28 PM EDT (3/31)
Length of Visible Light 13h 45m
Length of Day
12h 45m
New Moon, 1% of the Moon is Illuminated
Mar 31
New Moon
Apr 7
First Quarter
Apr 15
Full
Apr 22
Last Quarter
Apr 29
New

Hourly Weather History & Observations

Time (EDT) Temp. Windchill Dew Point Humidity Pressure Visibility Wind Dir Wind Speed Gust Speed Precip Events Conditions
12:16 AM 29.5 °F 21.8 °F 24.6 °F 82% 30.08 in 10.0 mi East 8.1 mph - N/A   Clear
12:35 AM 29.8 °F 21.5 °F 24.8 °F 81% 30.08 in 10.0 mi ESE 9.2 mph - N/A   Clear
12:56 AM 29.5 °F 22.5 °F 25.3 °F 85% 30.09 in 10.0 mi East 6.9 mph - N/A   Clear
1:15 AM 29.8 °F 23.0 °F 25.7 °F 85% 30.09 in 10.0 mi East 6.9 mph - N/A   Clear
1:36 AM 30.0 °F 25.2 °F 25.7 °F 84% 30.10 in 10.0 mi ESE 4.6 mph - N/A   Clear
1:56 AM 30.2 °F 24.3 °F 25.5 °F 83% 30.11 in 10.0 mi ESE 5.8 mph - N/A   Clear
2:15 AM 30.0 °F 26.5 °F 25.7 °F 84% 30.11 in 10.0 mi East 3.5 mph - N/A   Clear
2:36 AM 30.4 °F 26.9 °F 26.2 °F 85% 30.11 in 10.0 mi ESE 3.5 mph - N/A   Clear
2:56 AM 30.6 °F 25.8 °F 26.2 °F 84% 30.11 in 10.0 mi ESE 4.6 mph - N/A   Scattered Clouds
3:15 AM 30.2 °F 23.4 °F 25.9 °F 84% 30.10 in 10.0 mi East 6.9 mph - N/A   Scattered Clouds
3:36 AM 30.0 °F 24.1 °F 27.0 °F 88% 30.10 in 10.0 mi ESE 5.8 mph - N/A   Scattered Clouds
3:56 AM 30.2 °F 24.3 °F 26.8 °F 87% 30.10 in 10.0 mi East 5.8 mph - N/A   Clear
4:15 AM 30.2 °F 23.4 °F 27.3 °F 89% 30.09 in 10.0 mi East 6.9 mph - N/A   Clear
4:36 AM 29.7 °F 22.0 °F 27.1 °F 90% 30.09 in 10.0 mi East 8.1 mph - N/A   Clear
4:56 AM 30.2 °F 22.6 °F 27.3 °F 89% 30.09 in 10.0 mi ESE 8.1 mph - N/A   Clear
5:15 AM 30.9 °F 23.5 °F 26.1 °F 82% 30.08 in 10.0 mi ESE 8.1 mph - N/A   Clear
5:36 AM 31.1 °F 23.7 °F 25.5 °F 80% 30.09 in 10.0 mi ESE 8.1 mph - N/A   Clear
5:56 AM 31.1 °F 24.5 °F 25.5 °F 80% 30.09 in 10.0 mi ESE 6.9 mph - N/A   Clear
6:16 AM 30.0 °F 25.2 °F 26.4 °F 86% 30.10 in 10.0 mi East 4.6 mph - N/A   Clear
6:36 AM 29.3 °F 24.3 °F 28.0 °F 95% 30.10 in 10.0 mi East 4.6 mph - N/A   Clear
6:56 AM 29.3 °F 21.5 °F 28.4 °F 96% 30.10 in 10.0 mi East 8.1 mph - N/A   Clear
7:16 AM 29.8 °F 22.2 °F 28.9 °F 96% 30.10 in 10.0 mi East 8.1 mph - N/A   Scattered Clouds
7:36 AM 29.7 °F 21.3 °F 28.4 °F 95% 30.11 in 10.0 mi East 9.2 mph - N/A   Scattered Clouds
7:55 AM 29.7 °F 21.3 °F 28.8 °F 96% 30.12 in 10.0 mi East 9.2 mph - N/A   Clear
8:16 AM 30.7 °F 22.0 °F 29.3 °F 94% 30.11 in 10.0 mi East 10.4 mph - N/A   Scattered Clouds
8:36 AM 30.9 °F 22.2 °F 29.3 °F 94% 30.12 in 10.0 mi East 10.4 mph - N/A   Mostly Cloudy
8:56 AM 31.3 °F 22.7 °F 29.7 °F 94% 30.12 in 10.0 mi East 10.4 mph 16.1 mph N/A   Scattered Clouds
9:16 AM 32.0 °F 23.0 °F 29.8 °F 92% 30.11 in 10.0 mi East 11.5 mph 19.6 mph N/A   Clear
9:36 AM 32.0 °F 21.6 °F 29.8 °F 92% 30.10 in 10.0 mi East 15.0 mph 20.7 mph N/A   Clear
9:56 AM 32.2 °F 21.8 °F 30.0 °F 92% 30.10 in 10.0 mi East 15.0 mph 21.9 mph N/A   Clear
10:16 AM 32.7 °F 22.1 °F 30.2 °F 90% 30.11 in 10.0 mi East 16.1 mph 23.0 mph N/A   Clear
10:36 AM 32.7 °F 24.5 °F 30.4 °F 91% 30.11 in 10.0 mi East 10.4 mph 20.7 mph N/A   Scattered Clouds
10:56 AM 32.5 °F 21.9 °F 30.6 °F 92% 30.10 in 10.0 mi East 16.1 mph 23.0 mph N/A   Scattered Clouds
11:16 AM 32.9 °F 23.2 °F 30.9 °F 92% 30.10 in 10.0 mi East 13.8 mph 21.9 mph N/A   Scattered Clouds
11:36 AM 32.9 °F 23.2 °F 30.9 °F 92% 30.10 in 10.0 mi East 13.8 mph 21.9 mph N/A   Scattered Clouds
11:56 AM 33.4 °F 24.8 °F 31.1 °F 91% 30.10 in 10.0 mi East 11.5 mph 20.7 mph N/A   Clear
12:16 PM 33.4 °F 23.5 °F 30.7 °F 90% 30.09 in 10.0 mi East 15.0 mph 23.0 mph N/A   Clear
12:36 PM 33.8 °F 23.5 °F 31.1 °F 90% 30.08 in 10.0 mi East 16.1 mph 24.2 mph N/A   Clear
12:56 PM 33.8 °F 23.5 °F 30.7 °F 89% 30.08 in 10.0 mi East 16.1 mph 25.3 mph N/A   Scattered Clouds
1:16 PM 33.3 °F 22.1 °F 30.9 °F 91% 30.09 in 10.0 mi East 18.4 mph 27.6 mph N/A   Mostly Cloudy
1:36 PM 33.8 °F 23.9 °F 30.9 °F 89% 30.08 in 10.0 mi East 15.0 mph 26.5 mph N/A   Mostly Cloudy
1:56 PM 33.6 °F 22.9 °F 30.7 °F 89% 30.08 in 10.0 mi East 17.3 mph 26.5 mph N/A   Overcast
2:16 PM 34.3 °F 24.6 °F 30.7 °F 87% 30.08 in 10.0 mi East 15.0 mph 27.6 mph N/A   Scattered Clouds
2:36 PM 34.3 °F 24.6 °F 30.2 °F 85% 30.07 in 10.0 mi East 15.0 mph 25.3 mph N/A   Scattered Clouds
2:56 PM 34.7 °F 24.3 °F 30.0 °F 83% 30.05 in 10.0 mi East 17.3 mph 25.3 mph N/A   Mostly Cloudy
3:16 PM 35.2 °F 25.4 °F 29.8 °F 81% 30.05 in 10.0 mi East 16.1 mph 26.5 mph N/A   Scattered Clouds
3:36 PM 35.8 °F 26.5 °F 29.7 °F 78% 30.04 in 10.0 mi East 15.0 mph 27.6 mph N/A   Scattered Clouds
3:56 PM 36.3 °F 26.8 °F 29.8 °F 77% 30.03 in 10.0 mi East 16.1 mph 24.2 mph N/A   Scattered Clouds
4:16 PM 35.8 °F 25.7 °F 29.8 °F 79% 30.02 in 10.0 mi East 17.3 mph 27.6 mph N/A   Scattered Clouds
4:36 PM 35.8 °F 26.1 °F 29.7 °F 78% 30.01 in 10.0 mi East 16.1 mph 25.3 mph N/A   Clear
4:56 PM 36.5 °F 27.0 °F 29.3 °F 75% 30.00 in 10.0 mi East 16.1 mph 25.3 mph N/A   Clear
5:16 PM 36.5 °F 26.7 °F 28.9 °F 74% 29.99 in 10.0 mi East 17.3 mph 28.8 mph N/A   Scattered Clouds
5:36 PM 35.6 °F 25.9 °F 28.9 °F 77% 29.98 in 10.0 mi East 16.1 mph 29.9 mph N/A   Mostly Cloudy
5:56 PM 35.6 °F 26.6 °F 28.9 °F 77% 29.97 in 10.0 mi East 13.8 mph 26.5 mph N/A   Mostly Cloudy
6:16 PM 35.4 °F 25.3 °F 28.9 °F 77% 29.97 in 10.0 mi East 17.3 mph 28.8 mph N/A   Overcast
6:36 PM 34.9 °F 23.6 °F 29.1 °F 79% 29.97 in 10.0 mi East 20.7 mph 32.2 mph N/A   Overcast
6:56 PM 34.3 °F 22.6 °F 29.1 °F 81% 29.96 in 10.0 mi East 21.9 mph 32.2 mph N/A   Overcast
7:16 PM 34.0 °F 23.4 °F 29.3 °F 83% 29.96 in 10.0 mi East 17.3 mph 27.6 mph N/A   Overcast
7:37 PM 33.8 °F 23.5 °F 29.1 °F 83% 29.95 in 10.0 mi East 16.1 mph 29.9 mph N/A   Overcast
7:56 PM 33.8 °F 22.5 °F 28.8 °F 82% 29.94 in 10.0 mi East 19.6 mph 31.1 mph N/A   Overcast
8:16 PM 33.8 °F 23.5 °F 28.8 °F 82% 29.93 in 10.0 mi East 16.1 mph 31.1 mph N/A   Overcast
8:37 PM 34.0 °F 23.0 °F 28.4 °F 80% 29.92 in 10.0 mi East 18.4 mph 27.6 mph N/A   Overcast
8:56 PM 33.8 °F 22.5 °F 28.4 °F 81% 29.91 in 10.0 mi East 19.6 mph 31.1 mph N/A   Overcast
9:16 PM 34.0 °F 23.0 °F 28.0 °F 79% 29.91 in 10.0 mi East 18.4 mph 32.2 mph N/A   Scattered Clouds
9:37 PM 33.8 °F 23.2 °F 28.0 °F 79% 29.92 in 10.0 mi East 17.3 mph 28.8 mph N/A   Scattered Clouds
9:56 PM 33.4 °F 21.7 °F 28.4 °F 82% 29.90 in 10.0 mi East 20.7 mph 31.1 mph N/A   Scattered Clouds
10:16 PM 33.3 °F 22.5 °F 28.8 °F 84% 29.90 in 10.0 mi East 17.3 mph 29.9 mph N/A   Scattered Clouds
10:37 PM 33.6 °F 22.6 °F 28.9 °F 83% 29.88 in 10.0 mi East 18.4 mph 28.8 mph N/A   Scattered Clouds
10:56 PM 33.8 °F 23.2 °F 29.1 °F 83% 29.88 in 10.0 mi East 17.3 mph 23.0 mph N/A   Clear
11:16 PM 33.8 °F 23.5 °F 29.3 °F 84% 29.88 in 10.0 mi East 16.1 mph 25.3 mph N/A   Clear
11:37 PM 33.8 °F 23.9 °F 29.7 °F 85% 29.87 in 10.0 mi East 15.0 mph 23.0 mph N/A   Scattered Clouds
11:56 PM 34.0 °F 28.8 °F 30.0 °F 85% 29.88 in 10.0 mi ESE 5.8 mph 16.1 mph N/A   Mostly Cloudy